When you browse on this site, cookies collect data to enhance your experience and personalize the content and advertising you see.
Visit our Privacy Policy to learn more. By continuing to use the site, you agree to this use of cookies and data.
  • In Austria
  • List of Countries
  • For 7 days
  • Water Temperature
  • Satellite Maps
  • Weather Map
  • News
  • Weather Widgets
  • user-avatar
    Login

    Hourly Weather Rondônia

    Today, 20 July, Saturday

    Time Temperature Precipitation Wind Pressure Humidity
    00:00 +22°C° 0 mm 0 mps 739 mmHg 60%
    01:00 +22°C° 0 mm 0 mps 739 mmHg 61%
    02:00 +22°C° 0 mm 0 mps 739 mmHg 64%
    03:00 +21°C° 0 mm 0 mps 739 mmHg 65%
    04:00 +21°C° 0 mm 0 mps 739 mmHg 65%
    05:00 +21°C° 0 mm 0 mps 739 mmHg 66%
    06:00 +22°C° 0 mm 0 mps 739 mmHg 64%
    07:00 +22°C° 0 mm 0 mps 740 mmHg 62%
    08:00 +23°C° 0 mm 0 mps 740 mmHg 61%
    09:00 +27°C° 0 mm 0 mps 740 mmHg 51%
    10:00 +31°C° 0 mm 0 mps 741 mmHg 41%
    11:00 +34°C° 0 mm 0 mps 741 mmHg 31%
    12:00 +35°C° 0 mm 0 mps 740 mmHg 29%
    13:00 +37°C° 0 mm 1 mps 739 mmHg 27%
    14:00 +37°C° 0 mm 1 mps 738 mmHg 25%
    15:00 +36°C° 0 mm 1 mps 738 mmHg 28%
    16:00 +35°C° 0 mm 1 mps 737 mmHg 32%
    17:00 +34°C° 0 mm 1 mps 737 mmHg 35%
    18:00 +32°C° 0 mm 1 mps 737 mmHg 40%
    19:00 +29°C° 0 mm 1 mps 737 mmHg 45%
    20:00 +25°C° 0 mm 0 mps 737 mmHg 50%
    21:00 +24°C° 0 mm 0 mps 737 mmHg 51%
    22:00 +24°C° 0 mm 0 mps 738 mmHg 53%
    23:00 +23°C° 0 mm 0 mps 738 mmHg 55%

    Tomorrow, 21 July, Sunday

    Time Temperature Precipitation Wind Pressure Humidity
    00:00 +23°C° 0 mm 0 mps 738 mmHg 56%
    01:00 +23°C° 0 mm 0 mps 738 mmHg 57%
    02:00 +22°C° 0 mm 0 mps 738 mmHg 59%
    03:00 +22°C° 0 mm 0 mps 738 mmHg 60%
    04:00 +22°C° 0 mm 0 mps 738 mmHg 61%
    05:00 +22°C° 0 mm 0 mps 738 mmHg 62%
    06:00 +22°C° 0 mm 0 mps 738 mmHg 60%
    07:00 +23°C° 0 mm 0 mps 739 mmHg 59%
    08:00 +24°C° 0 mm 0 mps 740 mmHg 58%
    09:00 +27°C° 0 mm 0 mps 740 mmHg 49%
    10:00 +33°C° 0 mm 1 mps 740 mmHg 41%
    11:00 +37°C° 0 mm 2 mps 740 mmHg 32%
    12:00 +37°C° 0 mm 2 mps 739 mmHg 31%
    13:00 +38°C° 0 mm 2 mps 738 mmHg 30%
    14:00 +38°C° 0 mm 2 mps 738 mmHg 29%
    15:00 +36°C° 0 mm 1 mps 737 mmHg 32%
    16:00 +35°C° 0 mm 1 mps 736 mmHg 35%
    17:00 +34°C° 0 mm 1 mps 736 mmHg 39%
    18:00 +32°C° 0 mm 1 mps 736 mmHg 42%
    19:00 +28°C° 0 mm 0 mps 737 mmHg 46%
    20:00 +26°C° 0 mm 0 mps 737 mmHg 50%
    21:00 +26°C° 0 mm 0 mps 737 mmHg 53%
    22:00 +25°C° 0 mm 0 mps 737 mmHg 56%
    23:00 +24°C° 0 mm 0 mps 738 mmHg 60%

    Day after tomorrow, 22 July, Monday

    Time Temperature Precipitation Wind Pressure Humidity
    00:00 +23°C° 0 mm 0 mps 738 mmHg 61%
    01:00 +23°C° 0 mm 0 mps 737 mmHg 62%
    02:00 +23°C° 0 mm 0 mps 737 mmHg 63%
    03:00 +22°C° 0 mm 0 mps 737 mmHg 63%
    04:00 +22°C° 0 mm 0 mps 737 mmHg 64%
    05:00 +22°C° 0 mm 0 mps 737 mmHg 64%
    06:00 +23°C° 0 mm 0 mps 738 mmHg 62%
    07:00 +24°C° 0 mm 0 mps 738 mmHg 60%
    08:00 +25°C° 0 mm 0 mps 739 mmHg 58%
    09:00 +30°C° 0 mm 1 mps 740 mmHg 49%
    10:00 +33°C° 0 mm 1 mps 740 mmHg 40%
    11:00 +37°C° 0 mm 2 mps 740 mmHg 31%
    12:00 +37°C° 0 mm 2 mps 739 mmHg 30%
    13:00 +38°C° 0 mm 2 mps 739 mmHg 29%
    14:00 +38°C° 0 mm 2 mps 738 mmHg 28%
    15:00 +36°C° 0 mm 1 mps 737 mmHg 31%
    16:00 +35°C° 0 mm 1 mps 737 mmHg 33%
    17:00 +34°C° 0 mm 1 mps 736 mmHg 36%
    18:00 +32°C° 0 mm 1 mps 736 mmHg 42%
    19:00 +30°C° 0 mm 1 mps 737 mmHg 47%
    20:00 +28°C° 0 mm 1 mps 737 mmHg 52%
    21:00 +25°C° 0 mm 0 mps 737 mmHg 54%
    22:00 +25°C° 0 mm 0 mps 737 mmHg 56%
    23:00 +24°C° 0 mm 0 mps 738 mmHg 58%

    23 July, Tuesday

    Time Temperature Precipitation Wind Pressure Humidity
    00:00 +24°C° 0 mm 0 mps 738 mmHg 58%
    01:00 +24°C° 0 mm 0 mps 738 mmHg 58%
    02:00 +23°C° 0 mm 0 mps 738 mmHg 58%
    03:00 +24°C° 0 mm 0 mps 738 mmHg 56%
    04:00 +24°C° 0 mm 0 mps 738 mmHg 55%
    05:00 +24°C° 0 mm 0 mps 738 mmHg 54%
    06:00 +25°C° 0 mm 0 mps 738 mmHg 54%
    07:00 +25°C° 0 mm 0 mps 739 mmHg 55%
    08:00 +25°C° 0 mm 0 mps 739 mmHg 55%
    09:00 +30°C° 0 mm 1 mps 740 mmHg 50%
    10:00 +32°C° 0 mm 1 mps 740 mmHg 44%
    11:00 +34°C° 0 mm 1 mps 740 mmHg 39%
    12:00 +34°C° 0 mm 1 mps 739 mmHg 38%
    13:00 +35°C° 0 mm 1 mps 739 mmHg 37%
    14:00 +35°C° 0 mm 1 mps 738 mmHg 36%
    15:00 +34°C° 0 mm 1 mps 737 mmHg 39%
    16:00 +33°C° 0 mm 1 mps 737 mmHg 43%
    17:00 +32°C° 0 mm 1 mps 737 mmHg 46%
    18:00 +29°C° 0 mm 0 mps 737 mmHg 47%
    19:00 +28°C° 0 mm 0 mps 737 mmHg 49%
    20:00 +27°C° 0 mm 0 mps 738 mmHg 51%
    21:00 +26°C° 0 mm 0 mps 738 mmHg 54%
    22:00 +25°C° 0 mm 0 mps 738 mmHg 58%
    23:00 +24°C° 0 mm 0 mps 738 mmHg 61%

    24 July, Wednesday

    Time Temperature Precipitation Wind Pressure Humidity
    00:00 +23°C° 0 mm 0 mps 738 mmHg 64%
    01:00 +23°C° 0 mm 0 mps 738 mmHg 66%
    02:00 +22°C° 0 mm 0 mps 738 mmHg 68%
    03:00 +22°C° 0 mm 0 mps 738 mmHg 69%
    04:00 +22°C° 0 mm 0 mps 738 mmHg 70%
    05:00 +22°C° 0 mm 0 mps 738 mmHg 71%
    06:00 +23°C° 0 mm 0 mps 738 mmHg 68%
    07:00 +24°C° 0 mm 0 mps 739 mmHg 65%
    08:00 +25°C° 0 mm 0 mps 739 mmHg 63%
    09:00 +28°C° 0 mm 0 mps 740 mmHg 53%
    10:00 +31°C° 0 mm 0 mps 740 mmHg 44%
    11:00 +36°C° 0 mm 1 mps 740 mmHg 34%
    12:00 +36°C° 0 mm 1 mps 740 mmHg 33%
    13:00 +36°C° 0 mm 1 mps 739 mmHg 32%
    14:00 +36°C° 0 mm 1 mps 738 mmHg 32%
    15:00 +34°C° 0 mm 1 mps 738 mmHg 37%
    16:00 +33°C° 0 mm 1 mps 738 mmHg 42%
    17:00 +32°C° 0 mm 2 mps 738 mmHg 47%
    18:00 +30°C° 0 mm 2 mps 738 mmHg 46%
    19:00 +28°C° 0 mm 2 mps 739 mmHg 45%
    20:00 +27°C° 0 mm 2 mps 739 mmHg 43%
    21:00 +26°C° 0 mm 2 mps 740 mmHg 44%
    22:00 +25°C° 0 mm 2 mps 740 mmHg 44%
    23:00 +24°C° 0 mm 2 mps 741 mmHg 45%

    25 July, Thursday

    Time Temperature Precipitation Wind Pressure Humidity
    00:00 +23°C° 0 mm 2 mps 741 mmHg 48%
    01:00 +21°C° 0 mm 2 mps 741 mmHg 51%
    02:00 +20°C° 0 mm 2 mps 741 mmHg 54%
    03:00 +19°C° 0 mm 2 mps 741 mmHg 57%
    04:00 +18°C° 0 mm 2 mps 741 mmHg 59%
    05:00 +17°C° 0 mm 2 mps 741 mmHg 62%
    06:00 +16°C° 0 mm 2 mps 742 mmHg 62%
    07:00 +16°C° 0 mm 3 mps 743 mmHg 62%
    08:00 +16°C° 0 mm 3 mps 744 mmHg 62%
    09:00 +18°C° 0 mm 3 mps 744 mmHg 56%
    10:00 +20°C° 0 mm 3 mps 744 mmHg 51%
    11:00 +21°C° 0 mm 3 mps 744 mmHg 46%
    12:00 +24°C° 0 mm 2 mps 743 mmHg 43%
    13:00 +25°C° 0 mm 2 mps 742 mmHg 41%
    14:00 +27°C° 0 mm 2 mps 741 mmHg 38%
    15:00 +26°C° 0 mm 2 mps 741 mmHg 40%
    16:00 +26°C° 0 mm 2 mps 741 mmHg 41%
    17:00 +26°C° 0 mm 2 mps 740 mmHg 43%
    18:00 +24°C° 0 mm 2 mps 741 mmHg 49%
    19:00 +22°C° 0 mm 1 mps 741 mmHg 55%
    20:00 +20°C° 0 mm 1 mps 741 mmHg 61%
    21:00 +19°C° 0 mm 1 mps 742 mmHg 62%
    22:00 +19°C° 0 mm 1 mps 742 mmHg 63%
    23:00 +18°C° 0 mm 1 mps 742 mmHg 64%
    Show more